Temperature
29 26 26 27 27 28 28 27 27 27 28 26 25 24 24 25 25 24 24 23 23 23 23 23 22 22 21 21 20 20 20 19 19 19 19 18 18 18 18 18 17 17 17 17
26 26 27 28 29 29 29 28 27 28 28 26 24 24 24 24 24 24 24 23 23 23 23 23 22 22 21 21 21 20 20 20 19 19 19 18 18 18 18 18 18 17 17 18
27 27 29 30 29 29 29 28 28 27 27 26 24 23 23 24 24 25 24 24 24 24 23 23 22 22 21 21 21 21 20 20 19 19 19 18 18 18 18 18 18 18 18 18
27 28 30 29 29 29 28 29 29 28 26 23 24 22 23 22 23 24 24 24 24 24 23 23 22 22 22 21 21 21 20 20 20 19 19 19 19 18 18 18 18 18 18 18
27 29 29 29 30 30 29 30 29 28 25 24 24 23 22 22 23 23 24 24 24 24 23 23 23 23 22 22 21 21 21 20 20 19 19 19 19 18 18 18 18 18 18 18
27 29 30 30 31 31 30 28 26 23 23 23 24 23 22 21 23 24 24 24 24 24 24 23 23 23 22 22 22 21 21 20 20 20 19 19 19 19 18 18 18 18 18 18
27 28 29 31 30 29 28 24 23 24 22 23 23 23 22 23 24 24 24 25 25 24 24 23 23 23 22 22 22 21 21 21 20 20 20 19 19 19 18 18 18 18 18 17
26 26 28 30 30 28 28 24 23 24 23 23 23 24 24 25 25 26 25 25 25 24 24 23 23 23 23 23 22 22 21 21 21 20 20 20 19 19 19 18 18 18 17 17
25 25 28 30 31 29 29 26 23 22 23 22 23 24 25 25 25 24 24 25 24 24 24 24 24 23 23 23 23 22 22 21 21 20 20 20 19 19 19 18 18 18 17 17
25 26 27 29 30 30 29 26 22 22 23 23 24 24 23 24 24 24 24 24 24 24 24 24 24 24 23 23 23 22 22 22 21 21 20 20 20 19 19 18 18 18 17 17
25 25 26 27 28 28 29 28 23 21 21 22 23 23 25 24 24 24 24 25 25 25 24 24 24 24 23 23 23 22 22 22 21 21 20 20 19 19 19 18 18 18 17 17
24 22 23 25 27 28 28 27 23 24 23 21 22 23 26 24 25 25 25 25 25 25 25 25 24 24 23 23 23 22 22 22 21 21 20 20 19 19 19 19 18 18 17 17
24 22 23 24 24 26 28 27 24 21 21 20 22 24 25 24 24 25 25 25 25 25 25 24 24 24 23 23 23 22 22 22 21 21 20 20 19 19 19 18 18 18 17 17
24 21 22 23 24 25 27 28 27 23 22 22 23 24 25 24 23 24 24 25 24 24 24 24 24 23 23 23 23 22 22 22 21 21 20 20 19 19 18 18 18 17 17 17
22 22 23 24 25 27 27 27 27 26 23 23 24 24 24 24 24 24 24 24 24 24 24 24 24 23 23 23 23 22 22 22 21 21 20 20 19 19 18 18 18 17 17 17
20 22 23 24 25 26 27 27 27 27 26 25 24 24 24 25 24 24 23 23 23 23 23 23 23 23 23 23 22 22 22 21 21 20 20 19 19 19 18 18 17 17 17 16
19 21 21 22 24 25 25 26 26 26 26 25 24 23 23 22 23 23 23 23 23 23 23 23 23 23 23 23 22 22 22 21 21 20 20 19 19 18 18 18 17 17 17 16
20 19 18 20 23 24 23 24 26 26 25 25 24 23 23 23 24 24 25 25 24 24 24 23 23 23 23 23 22 22 21 21 20 20 19 19 18 18 18 18 17 17 16 16
19 19 19 19 21 22 24 25 26 25 24 24 24 23 23 23 23 22 24 25 25 25 24 24 24 23 23 22 22 21 21 20 20 19 19 18 18 18 18 17 17 17 16 16
19 18 18 19 21 22 22 24 26 24 22 23 23 22 23 23 21 21 23 24 24 24 24 23 23 22 22 22 21 21 20 20 19 19 18 18 18 17 17 17 16 16 16 15
19 19 19 19 20 21 22 24 25 23 22 23 23 23 23 22 23 23 24 24 24 23 23 23 22 22 21 21 20 20 20 19 19 19 18 18 17 17 16 16 16 15 15 15
18 18 18 18 20 20 22 23 22 21 23 23 23 23 23 23 23 23 23 23 23 22 22 22 21 21 20 20 20 19 19 19 18 18 18 17 17 16 16 16 15 15 14 14
18 18 17 18 18 20 22 22 23 23 23 23 23 23 23 22 22 22 22 22 22 22 21 21 20 20 19 19 19 19 18 18 18 17 17 17 16 16 15 15 15 14 14 14
17 17 16 17 18 20 21 22 22 23 23 23 23 23 23 22 21 21 21 21 21 20 20 20 20 19 19 18 18 18 18 18 17 17 17 16 16 15 15 15 14 14 14 13
16 16 16 16 17 19 20 21 21 21 22 22 22 22 22 22 21 20 20 20 20 20 19 19 19 19 18 18 18 17 17 17 17 17 16 16 15 15 14 14 14 14 14 14
15 15 15 16 17 17 18 20 21 21 21 21 21 21 21 21 20 20 19 19 19 19 19 19 19 19 18 18 17 17 17 17 17 16 16 15 15 14 14 14 14 13 13 13
Wind_Speed
5 4 3 7 6 7 6 5 4 4 6 7 6 5 9 9 8 8 9 9 9 9 8 9 9 10 9 7 7 6 5 4 4 3 2 2 1 1 1 2 3 4 4 3
6 4 9 7 4 3 3 4 3 2 8 7 6 3 6 8 11 12 12 11 10 8 8 9 9 9 9 8 7 6 6 5 4 3 3 2 2 1 1 1 2 3 4 3
5 9 6 5 4 2 1 5 6 5 6 6 8 1 3 5 5 6 9 10 11 12 12 11 10 9 8 8 8 7 6 5 5 4 2 2 2 1 1 0 1 2 3 3
6 7 5 4 4 3 3 5 6 7 7 3 5 3 5 5 5 8 10 10 11 11 10 10 10 10 10 8 7 6 6 5 5 4 4 4 3 2 2 1 1 1 2 2
6 4 3 5 6 4 6 4 4 5 6 4 2 3 5 2 6 10 11 11 11 12 12 11 11 11 10 9 8 7 6 5 5 4 4 4 3 2 1 1 1 0 1 1
7 5 4 7 5 3 3 4 7 6 6 2 3 4 4 5 10 9 10 11 11 12 12 11 10 9 9 8 7 7 7 5 5 5 5 5 4 3 2 1 1 0 1 1
7 7 6 3 1 4 7 7 5 6 5 3 3 3 6 9 9 10 11 11 11 11 11 11 11 11 10 10 9 8 8 6 5 5 5 4 4 4 3 2 1 1 0 1
4 7 6 3 5 5 4 10 8 5 4 3 2 2 6 6 5 7 7 8 11 11 11 12 13 12 12 12 11 9 9 7 6 6 5 4 4 3 2 2 2 1 1 1
6 8 8 6 5 8 4 4 9 7 3 2 2 3 4 1 5 6 7 10 11 12 12 12 12 12 12 12 11 11 10 8 7 6 5 4 4 3 3 2 2 1 0 1
8 6 8 6 1 2 8 8 7 6 4 1 2 2 4 5 7 8 10 11 11 11 11 11 11 12 11 11 10 10 10 9 8 7 6 5 4 4 3 3 2 2 1 1
8 6 8 4 4 8 4 5 6 5 7 7 3 6 8 12 12 11 11 11 11 12 12 11 11 11 10 10 10 10 9 8 7 7 6 5 4 4 3 3 2 2 2 2
6 6 5 8 7 6 8 8 9 5 4 6 6 6 6 12 12 12 12 12 11 11 10 10 10 9 10 10 9 9 9 9 8 7 6 5 4 4 4 3 3 3 3 3
5 6 1 7 8 5 1 4 7 7 6 6 6 5 3 6 8 10 12 11 10 10 9 9 9 9 9 9 9 8 8 8 7 7 6 6 5 4 4 3 3 3 3 4
5 5 7 9 8 4 3 4 3 7 5 6 7 7 5 7 9 10 11 11 10 10 10 10 9 8 9 9 9 8 8 8 8 7 7 6 5 5 5 4 4 4 4 4
5 4 4 5 5 2 2 5 3 3 8 9 9 10 11 11 13 13 12 12 11 11 11 10 10 9 8 8 8 7 7 7 8 8 7 6 5 5 5 4 4 4 4 4
4 3 2 2 3 2 3 4 3 3 3 6 6 6 6 8 8 9 11 13 12 12 11 10 10 10 9 9 8 8 7 7 8 8 7 6 6 6 5 5 5 5 4 4
2 3 3 2 4 3 4 5 3 2 2 6 7 8 6 9 11 13 13 13 13 13 11 11 10 10 9 9 8 8 7 7 8 8 7 7 7 6 5 6 5 5 4 5
4 3 3 1 3 4 9 4 3 2 1 2 5 7 11 13 12 10 11 14 13 13 12 12 11 10 8 8 8 8 7 7 8 7 7 7 7 6 6 6 5 5 4 5
7 7 4 3 3 4 6 4 2 2 3 1 5 8 9 10 9 3 4 9 12 12 11 11 10 9 9 9 9 9 8 7 7 7 6 6 7 7 6 6 5 4 5 5
4 6 6 4 4 6 7 6 1 6 2 4 6 10 10 10 7 5 6 6 8 8 8 9 9 9 9 9 9 10 8 7 7 6 6 6 6 6 6 6 5 4 5 5
3 3 4 5 4 6 7 5 3 4 5 4 5 8 8 6 7 8 7 7 8 8 9 9 10 9 9 10 10 10 8 8 7 7 7 6 6 6 6 5 5 5 5 5
3 3 4 4 4 7 5 2 3 6 4 2 5 6 7 7 7 7 7 8 9 9 10 10 10 8 8 10 11 9 8 6 7 7 7 6 5 5 5 5 5 5 6 6
2 5 5 6 6 5 2 2 3 5 5 3 5 6 10 10 8 8 8 8 9 10 10 9 10 8 6 7 9 9 7 7 7 7 6 6 5 4 4 5 5 4 5 4
4 2 2 1 1 1 3 5 5 5 5 4 6 10 12 11 9 9 8 7 8 9 9 9 10 9 6 6 7 8 8 8 8 7 6 5 5 4 4 3 3 4 4 5
4 2 2 1 1 4 5 4 5 6 8 9 7 7 10 13 10 9 7 7 7 8 8 9 9 9 8 7 7 7 8 8 8 7 6 5 5 5 4 3 2 3 3 5
3 1 1 3 4 2 2 1 4 7 7 8 7 7 7 9 10 8 7 6 6 7 7 8 8 8 7 7 7 6 7 8 8 6 5 5 5 4 4 4 3 4 1 2
Wind_Direction
341 56 267 247 217 193 189 171 175 186 141 118 136 162 182 182 179 182 178 174 179 178 175 164 159 154 149 150 156 158 153 159 150 142 149 152 181 183 176 191 182 184 185 183
13 290 245 240 224 189 178 153 175 142 138 129 135 163 199 191 191 187 185 182 183 176 165 166 161 160 161 162 164 161 162 163 162 164 162 160 155 178 195 212 188 200 199 197
222 245 252 251 230 177 243 199 201 154 117 111 114 21 246 225 208 188 187 190 185 179 174 173 171 171 165 167 170 167 167 164 170 164 136 111 81 38 39 23 244 235 216 209
250 252 251 245 238 179 240 222 165 153 126 168 147 179 254 227 230 204 197 191 185 180 175 173 170 170 172 174 168 161 161 161 164 155 144 148 154 167 210 204 202 229 212 214
263 264 256 245 239 207 218 209 156 139 124 96 82 127 267 200 222 214 201 193 186 180 176 175 176 174 172 171 166 161 155 158 160 152 153 147 149 169 168 139 146 281 310 258
257 267 230 228 246 214 155 60 36 54 75 72 232 150 250 221 213 204 195 190 181 177 177 177 175 166 166 167 164 159 154 159 159 153 153 152 152 151 137 135 163 224 319 323
305 298 275 234 348 348 84 85 34 9 20 256 252 137 235 233 212 191 187 186 173 170 172 173 171 170 171 171 169 166 162 166 165 158 159 162 161 152 151 158 166 169 315 325
235 279 264 223 179 192 159 132 152 185 202 264 318 214 251 228 189 172 169 171 168 170 172 177 179 177 176 174 171 169 169 169 167 164 166 161 154 146 151 160 159 167 194 216
198 249 275 250 204 162 168 172 166 138 135 104 282 297 330 56 148 153 161 164 172 177 176 179 180 178 175 174 175 172 171 169 169 169 161 155 152 148 147 145 140 144 143 127
182 246 279 274 261 226 172 157 98 113 136 167 270 244 213 202 192 180 169 170 176 175 176 178 177 177 175 174 173 170 170 170 171 172 171 163 157 157 153 132 121 118 98 83
179 205 286 336 197 220 201 135 118 126 147 147 183 255 219 192 191 182 175 175 178 175 177 176 177 175 168 165 166 169 171 168 169 169 165 157 159 159 148 137 132 127 111 103
187 155 240 260 256 215 196 185 149 153 198 155 158 252 238 185 184 172 168 171 172 171 171 168 165 160 162 166 167 171 172 172 174 168 160 158 156 149 142 139 137 129 116 106
157 129 164 324 332 347 235 197 158 137 125 143 153 245 247 169 166 167 162 161 164 161 156 150 151 156 163 167 167 167 167 168 165 158 152 152 152 146 144 143 138 121 111 107
133 125 163 198 221 247 286 282 168 131 151 181 195 204 203 173 170 168 161 154 156 159 155 152 155 161 163 164 165 163 166 163 155 147 148 152 156 154 150 142 130 117 112 110
98 136 171 203 224 227 257 278 274 194 183 177 203 193 203 189 180 173 164 155 152 157 160 161 161 159 155 152 157 157 155 155 150 143 143 148 149 145 137 131 122 115 112 111
55 123 107 334 345 4 317 298 292 265 194 168 163 207 207 167 153 153 158 156 156 161 165 166 161 158 157 155 156 155 154 152 145 144 147 144 138 134 129 124 120 115 106 98
28 96 94 275 317 28 285 253 239 268 227 163 178 206 164 142 155 165 166 164 166 169 168 166 165 165 164 159 157 155 154 146 141 145 147 147 143 138 138 133 121 117 114 104
143 107 124 129 56 226 241 243 186 174 267 190 172 165 156 158 165 165 165 167 170 169 169 171 169 169 164 152 141 136 136 136 138 141 145 146 144 143 140 131 130 128 122 118
157 145 126 125 172 263 288 284 191 152 307 308 146 142 142 134 107 99 178 169 169 170 169 171 170 161 150 144 139 132 129 131 132 137 141 145 145 146 144 144 145 139 129 123
93 120 129 136 161 218 250 281 232 104 339 301 146 144 142 126 133 200 199 161 151 150 153 156 150 141 142 144 138 132 135 137 140 140 137 136 137 144 148 149 143 133 130 129
40 68 139 158 190 246 255 285 64 109 230 259 151 147 144 149 173 178 161 147 141 136 132 132 132 137 142 142 139 138 143 152 149 137 131 129 132 137 140 139 139 134 130 125
178 163 179 152 178 245 290 51 139 198 213 164 136 134 124 123 123 129 132 133 131 126 121 123 124 126 133 138 139 142 149 148 134 131 129 127 132 138 135 131 136 135 139 135
181 190 186 182 205 238 293 158 166 147 127 110 123 124 122 116 117 119 121 125 127 124 123 122 122 121 126 137 141 143 148 137 132 130 129 128 126 121 128 139 149 147 150 152
317 5 96 90 277 336 49 67 62 88 108 107 122 127 121 117 122 120 122 124 123 124 127 124 121 122 126 134 136 143 146 142 139 140 136 133 133 127 122 129 145 157 168 170
296 336 50 66 312 30 23 47 71 71 85 89 99 116 128 128 127 128 131 133 134 133 133 133 137 139 146 143 140 145 146 143 140 143 145 144 145 146 134 119 121 160 184 188
317 286 179 223 241 179 252 289 87 85 89 94 98 96 110 124 128 127 130 130 134 138 140 139 140 143 146 146 149 151 152 150 149 149 154 157 156 151 145 137 99 46 97 164
Height
1510 1516 1523 1519 1516 1518 1521 1527 1531 1528 1524 1530 1537 1540 1540 1539 1541 1543 1545 1546 1548 1549 1551 1552 1553 1554 1555 1556 1556 1556 1556 1556 1557 1557 1558 1558 1558 1559 1559 1559 1560 1560 1560 1560
1519 1521 1512 1509 1509 1513 1518 1526 1529 1525 1523 1530 1538 1541 1538 1539 1539 1539 1541 1544 1545 1547 1549 1551 1552 1553 1554 1555 1555 1556 1556 1556 1556 1556 1557 1557 1558 1558 1558 1558 1558 1559 1559 1559
1521 1515 1507 1508 1511 1516 1519 1525 1525 1527 1527 1530 1539 1549 1544 1540 1539 1540 1540 1541 1543 1545 1547 1549 1551 1552 1554 1554 1555 1555 1555 1555 1555 1556 1556 1556 1556 1556 1557 1557 1557 1557 1558 1558
1513 1506 1507 1510 1511 1512 1524 1513 1514 1521 1535 1548 1544 1564 1548 1542 1540 1538 1538 1539 1540 1543 1545 1547 1549 1551 1552 1553 1554 1554 1555 1555 1555 1555 1555 1555 1555 1555 1556 1556 1556 1556 1557 1557
1513 1506 1507 1511 1507 1506 1512 1506 1511 1518 1532 1546 1547 1558 1553 1542 1542 1536 1535 1536 1538 1541 1543 1545 1547 1549 1551 1553 1553 1554 1554 1554 1554 1555 1555 1555 1555 1555 1555 1555 1556 1556 1556 1556
1507 1502 1503 1502 1500 1501 1503 1510 1518 1528 1540 1560 1549 1555 1556 1543 1535 1532 1532 1534 1536 1539 1541 1544 1547 1549 1550 1552 1553 1553 1553 1554 1554 1554 1554 1554 1554 1555 1555 1555 1555 1555 1554 1554
1512 1504 1499 1498 1503 1504 1508 1531 1554 1558 1567 1564 1546 1550 1549 1529 1524 1525 1528 1531 1534 1537 1540 1542 1545 1547 1549 1550 1551 1552 1553 1553 1553 1553 1554 1554 1554 1554 1554 1554 1554 1554 1553 1553
1525 1523 1502 1496 1501 1509 1511 1527 1555 1567 1570 1564 1548 1549 1536 1520 1520 1523 1526 1529 1533 1535 1537 1540 1543 1545 1547 1549 1550 1551 1551 1552 1552 1553 1553 1553 1554 1554 1554 1553 1553 1553 1552 1552
1523 1521 1498 1493 1492 1498 1509 1520 1525 1547 1555 1564 1556 1542 1529 1520 1521 1523 1526 1528 1531 1533 1536 1538 1541 1543 1545 1547 1548 1549 1550 1551 1552 1552 1553 1553 1553 1553 1553 1553 1552 1552 1552 1552
1509 1517 1502 1493 1492 1494 1499 1508 1530 1546 1563 1571 1558 1550 1544 1529 1525 1522 1524 1527 1529 1532 1534 1537 1539 1542 1544 1546 1548 1549 1550 1551 1551 1552 1552 1552 1552 1552 1552 1552 1552 1551 1551 1551
1501 1515 1510 1501 1501 1504 1502 1509 1525 1541 1547 1564 1568 1556 1520 1519 1517 1519 1521 1524 1526 1529 1532 1534 1537 1540 1543 1545 1546 1548 1549 1550 1551 1551 1552 1552 1552 1552 1552 1552 1551 1551 1550 1550
1497 1512 1520 1508 1494 1490 1495 1502 1518 1537 1543 1549 1556 1547 1508 1510 1511 1514 1518 1521 1524 1527 1530 1533 1536 1539 1541 1543 1545 1546 1548 1549 1549 1550 1551 1551 1552 1552 1551 1551 1550 1550 1549 1549
1494 1511 1527 1524 1513 1499 1498 1498 1506 1519 1535 1547 1552 1539 1508 1508 1511 1513 1516 1519 1523 1526 1529 1532 1534 1537 1540 1542 1543 1545 1546 1547 1548 1549 1550 1550 1551 1551 1551 1550 1550 1549 1549 1548
1487 1507 1520 1528 1521 1507 1503 1499 1500 1515 1532 1538 1534 1525 1513 1510 1511 1513 1514 1516 1521 1524 1527 1530 1533 1535 1538 1540 1542 1543 1545 1546 1547 1548 1548 1549 1549 1550 1550 1550 1549 1549 1548 1548
1487 1504 1504 1504 1499 1497 1498 1498 1498 1505 1513 1522 1520 1516 1508 1506 1507 1509 1512 1515 1519 1523 1525 1528 1531 1533 1536 1538 1540 1542 1544 1545 1546 1546 1547 1547 1548 1549 1549 1549 1548 1548 1548 1548
1491 1500 1501 1503 1496 1496 1497 1495 1495 1497 1499 1504 1507 1509 1500 1501 1505 1508 1511 1514 1517 1520 1523 1526 1528 1530 1533 1536 1539 1541 1542 1543 1544 1545 1546 1547 1547 1547 1548 1548 1548 1548 1548 1547
1497 1502 1510 1514 1502 1499 1508 1497 1495 1496 1495 1498 1506 1503 1498 1501 1503 1506 1508 1511 1513 1517 1520 1524 1526 1528 1530 1534 1536 1538 1540 1541 1543 1544 1545 1545 1546 1547 1547 1547 1548 1547 1547 1547
1496 1504 1513 1515 1510 1522 1507 1488 1488 1491 1491 1490 1491 1493 1493 1495 1499 1502 1504 1506 1510 1513 1517 1521 1523 1526 1529 1532 1534 1537 1539 1540 1541 1542 1543 1544 1545 1545 1546 1547 1547 1547 1547 1547
1487 1499 1512 1520 1521 1514 1498 1487 1486 1491 1495 1489 1489 1491 1493 1495 1500 1505 1505 1505 1507 1510 1514 1518 1521 1524 1527 1530 1532 1534 1536 1538 1539 1540 1541 1542 1543 1544 1545 1546 1546 1546 1546 1546
1487 1492 1507 1516 1518 1521 1502 1484 1481 1486 1500 1489 1488 1490 1492 1495 1505 1507 1504 1505 1508 1510 1513 1516 1520 1523 1525 1528 1530 1532 1534 1535 1536 1538 1540 1541 1542 1543 1544 1544 1545 1545 1545 1545
1498 1501 1507 1512 1514 1507 1489 1482 1481 1502 1503 1489 1489 1489 1490 1492 1496 1499 1502 1504 1507 1509 1512 1515 1518 1520 1523 1526 1528 1530 1531 1532 1534 1536 1537 1539 1541 1542 1543 1543 1543 1544 1544 1544
1501 1505 1508 1511 1514 1509 1484 1482 1488 1492 1486 1487 1488 1489 1490 1491 1494 1498 1500 1503 1506 1509 1511 1514 1517 1520 1522 1524 1526 1527 1529 1531 1533 1535 1536 1538 1539 1540 1541 1541 1542 1542 1542 1542
1496 1497 1498 1500 1501 1489 1484 1483 1484 1483 1484 1485 1486 1488 1489 1492 1496 1498 1500 1503 1506 1508 1511 1513 1516 1519 1521 1523 1525 1526 1528 1530 1532 1534 1535 1536 1537 1538 1539 1540 1540 1540 1541 1541
1493 1490 1492 1494 1490 1486 1485 1483 1483 1483 1483 1485 1486 1487 1489 1492 1496 1499 1502 1505 1506 1508 1510 1513 1515 1517 1520 1522 1524 1525 1527 1529 1530 1532 1532 1534 1535 1536 1537 1538 1538 1539 1539 1539
1497 1494 1494 1494 1490 1487 1486 1486 1486 1486 1485 1485 1487 1489 1490 1492 1495 1499 1502 1505 1507 1508 1510 1512 1514 1516 1518 1520 1522 1524 1526 1527 1528 1529 1530 1531 1533 1534 1535 1536 1536 1537 1538 1538
1497 1497 1497 1496 1491 1491 1490 1488 1488 1487 1487 1488 1489 1490 1492 1493 1494 1498 1501 1503 1506 1508 1510 1512 1513 1515 1517 1519 1520 1522 1524 1525 1526 1527 1528 1529 1530 1532 1533 1534 1534 1535 1536 1536